Regional Weather Roundup
Issued by NWS

Home | Current Version | Previous Version | Text Only | Print | Product List | Glossary Off
Versions: 1 2 3 4 5 6 7 8 9 10 11 12 13 14 15 16 17 18 19 20 21 22 23 24 25 26 27 28 29 30 31 32 33 34 35 36 37 38 39 40 41 42 43 44 45 46 47 48 49 50

000
ASUS43 KMKX 301921
RWRWI

WISCONSIN REGIONAL WEATHER ROUNDUP
NATIONAL WEATHER SERVICE MILWAUKEE/SULLIVAN WI
200 PM CDT SUN AUG 30 2015

NOTE: "FAIR" INDICATES FEW OR NO CLOUDS BELOW 12,000 FEET WITH NO
SIGNIFICANT WEATHER AND/OR OBSTRUCTIONS TO VISIBILITY.

WIZ001-002-006>008-014>016-023>028-302000-
NORTHWEST WISCONSIN

CITY           SKY/WX    TMP DP  RH WIND       PRES   REMARKS
SUPERIOR ARPT  SUNNY     80  67  65 SW10      29.89S HX  82
ASHLAND        SUNNY     81  63  54 S15G22    29.91F HX  82
HAYWARD        SUNNY     76  61  59 S15G21    29.97F
SIREN          SUNNY     79  64  60 S10       29.95F HX  80
CUMBERLAND     SUNNY     73  63  68 S10       29.98F
RICE LAKE      SUNNY     73  63  70 SE10      30.01S
CHETEK         SUNNY    N/A N/A N/A SE8       30.00F
LADYSMITH      SUNNY     76  65  67 S10       30.02F
EAU CLAIRE     SUNNY     75  64  68 S13       30.00F
MENOMONIE      SUNNY     75  64  68 SE7       30.00F
NEW RICHMOND   SUNNY     77  64  63 S14       29.98F
OSCEOLA        SUNNY     76  63  63 S12       29.99F
$$

WIZ003>005-009-010-017-018-302000-
NORTH CENTRAL WISCONSIN

CITY           SKY/WX    TMP DP  RH WIND       PRES   REMARKS
MANITOWISH WTR SUNNY     76  64  64 SW12      29.98F
ARBOR VITAE    SUNNY     77  66  68 S13       30.00S
WOODRUFF       SUNNY     77  66  68 S13       30.00S
RHINELANDER    SUNNY     74  61  63 SW10      30.03F
EAGLE RIVER    MOSUNNY   74  59  59 SW12      30.00F
LAND O LAKES   MOSUNNY   77  60  55 SW10      30.00F
PHILLIPS       SUNNY     76  65  68 S12G17    29.99F
TOMAHAWK       SUNNY     74  63  67 S7        30.03F
MEDFORD        MOSUNNY   73  64  75 S12       30.03F
MERRILL        SUNNY     74  64  70 SW6       30.04F
$$

WIZ029-030-035-036-043>047-302000-
CENTRAL WISCONSIN

CITY           SKY/WX    TMP DP  RH WIND       PRES   REMARKS
WAUSAU         SUNNY     74  62  66 S9        30.02F
MOSINEE        NOT AVBL
MARSHFIELD     SUNNY     76  62  62 S12       30.04F
STEVENS POINT  SUNNY     72  62  69 SW9       30.05S
WAUPACA        MOSUNNY   74  63  67 S10       30.05F
WAUTOMA        MOSUNNY   73  63  68 S8        30.06F
WISC RAPIDS    SUNNY     74  61  63 SW9       30.05F
CAMP DOUGLAS   PTSUNNY   75  72  88 S5        30.04F
$$

WIZ011>013-019>022-031-037>040-048>050-302000-
NORTHEAST WISCONSIN

CITY           SKY/WX    TMP DP  RH WIND       PRES   REMARKS
ANTIGO         SUNNY     74  62  67 S10       30.04F
SHAWANO        PTSUNNY   75  63  66 SW8       30.04F
OCONTO         MOSUNNY   74  64  71 SW8       30.02F
STURGEON BAY   PTSUNNY   72  63  73 SW8       30.05F
GREEN BAY      PTSUNNY   72  63  73 SW10      30.04F
MANITOWOC      CLOUDY    71  63  75 MISG      30.06F
APPLETON       CLOUDY    70  61  73 SW7       30.05S
CLINTONVILLE   PTSUNNY   72  61  68 S9        30.03F
OSHKOSH        CLOUDY    71  62  73 S7        30.05F
$$

WIZ032>034-041-042-053>061-302000-
SOUTHWEST WISCONSIN

CITY           SKY/WX    TMP DP  RH WIND       PRES   REMARKS
LA CROSSE      CLOUDY    73  64  73 S10       30.04F
SPARTA         MOSUNNY   74  61  61 S8        30.06S
VIROQUA          N/A     71  63  75 S8        30.07F
BOSCOBEL       CLOUDY    73  63  70 W7        30.07S
PRAIRIE DU CHI CLOUDY    72  61  67 S5        30.06F
PLATTEVILLE    PTSUNNY   73  65  77 S6        30.08S
$$

WIZ056-057-062-063-064-067-068-302000-
SOUTH CENTRAL WISCONSIN

CITY           SKY/WX    TMP DP  RH WIND       PRES   REMARKS
REEDSBURG      MOSUNNY   73  63  72 S3        30.06S
BARABOO/DELLS  PTSUNNY   73  61  65 S5        30.06F
LONE ROCK      CLOUDY    74  62  66 W7        30.06F
MINERAL POINT  MOSUNNY   73  63  68 S5        30.08S
MADISON        MOSUNNY   71  61  70 S6        30.06F
MIDDLETON      MOSUNNY   75  61  61 SW6       30.08S
WATERTOWN      CLOUDY    71  66  84 SW7       30.06F
MONROE         MOSUNNY   72  61  68 CALM      30.08S
JANESVILLE     PTSUNNY   73  61  64 CALM      30.06F
$$

WIZ051-052-058>065-066-070>072-302000-
SOUTHEAST WISCONSIN

CITY           SKY/WX    TMP DP  RH WIND       PRES   REMARKS
MILWAUKEE      PTSUNNY   71  63  75 SE3       30.07F
WAUKESHA       CLOUDY    68  61  77 S5        30.09F
MILWAUKEE/TIMM CLOUDY    72  59  64 SW6       30.08F
RACINE         CLOUDY    70  62  76 CALM      30.08F
BURLINGTON     MOSUNNY   72  60  65 W5        30.06F
KENOSHA        CLOUDY    72  63  73 E3        30.07F
FOND DU LAC    PTSUNNY   72  63  73 VRB7      30.06F
SHEBOYGAN      MOSUNNY   72  63  73 SW5       30.05F
WEST BEND      CLOUDY    72  61  68 CALM      30.06F
JUNEAU         CLOUDY    70  62  75 SW7       30.08F
$$

LSZ147-162-302000-
LAKE SUPERIOR

STATION/POSITION TIME  TEMP    WIND        PRES    WAVE
                       AIR SEA DIR/SP/G            HT/PER
                 (UTC) (F)     (DEG/KT/KT) (MB)    (FT/S)
W MID LAKE BUOY  1850   59 55  240/  8/  8 1012.1F   1/ 3
DEVILS ISLAND    1900   63     230/  8/ 10 1012.0F
PORT WING        1800   77     190/  9/ 12 1012.5F
SAXON HARBOR     1800   80     200/ 11/ 15 1012.5F
$$

LMZ867-665-643>646-302000-
LAKE MICHIGAN

STATION/POSITION TIME  TEMP    WIND        PRES    WAVE
                       AIR SEA DIR/SP/G            HT/PER
                 (UTC) (F)     (DEG/KT/KT) (MB)    (FT/S)
CHAMBERS ISLAND  1800   68     180/  6/ 13 1016.6F
S GREEN BAY BUOY 1800   67 64  210/  8/ 10 1018.7
N MID LAKE BUOY  1850   64 65  200/ 14/ 16 1016.4F   1/ 3
NORTHPORT PIER   1800   67     150/  7/ 11 1016.6F
SHEBOYGAN LAKESH 1900   59     150/  7/  8 1018.1F
PORT WASHINGTON  1840   62     150/  2/  4 1019.0F
ATWATER BUOY     1900   59 52  130/  2/  2 1019.6F
MILWAUKEE LAKESH 1900   59     160/  1/  2   N/A
S MID LAKE BUOY  1850   66 69  320/  8/  8 1018.0R
KENOSHA   LAKESH 1900   59      20/  2/  4 1017.9F
$$

TC  - TEMPERATURE IN CELSIUS
VSB - VISIBILITY IN STATUTE MILES
WCI - WIND CHILL INDEX
HX  - HEAT INDEX



USA.gov is the U.S. government's official web portal to all federal, state and local government web resources and services.